Voltar ao catálogo

MOLNIYA 1-32

AtivoComunicaçõesHEO
NORAD 8601·PAYLOAD·🇷🇺 Russia

Lançado Jan 22, 1976 de Baikonur Cosmodrome

Loading…

Próximas Passagens (próximas 24 horas)

TLE

AtualizadoSource: Space-Track

Época: Sep 13, 2026, 19:51 UTC

1 08601U 76006A   26256.82763723  .00001241  00000-0  00000-0 0  9991
2 08601  63.6791 126.1809 6764354 275.6050  16.8390  2.00031621 83650

Acompanhe MOLNIYA 1-32 em tempo real com AllMySat

Download on the App Store